St Catherine Internationa, Egypt

3:11 PM EET on August 23, 2017 (GMT +0200)
St Catherine Internationa

Weather History for HESC - May, 2014

Change the Weather History Date:

Monday, May 26, 2014

  Actual Average Record
Temperature  
Mean Temperature 72 °F -  
Max Temperature 84 °F - - ()
Min Temperature 60 °F - - ()
Cooling Degree Days 7    
Growing Degree Days 22 (Base 50)    
Moisture  
Dew Point 33 °F    
Average Humidity 27    
Maximum Humidity 55    
Minimum Humidity 11    
Precipitation  
Precipitation 0.00 in - - ()
Sea Level Pressure  
Sea Level Pressure 30.18 in    
Wind  
Wind Speed 9 mph ()    
Max Wind Speed 20 mph    
Max Gust Speed -    
T = Trace of Precipitation, MM = Missing Value Source: Averaged Metar Reports

Daily Weather History Graph

Daily Weather History Graph

Search for Another Location

Airport or City:

Trip Planner

Search our weather history database for the weather conditions in past years. The results will help you decide how hot, cold, wet, or windy it might be!

Date:

Astronomy

May. 26, 2014 Rise Set
Actual Time 5:47 AM EEST 7:33 PM EEST
Civil Twilight 5:21 AM EEST 8:00 PM EEST
Nautical Twilight 4:49 AM EEST 8:32 PM EEST
Astronomical Twilight 4:16 AM EEST 9:05 PM EEST
Moon 4:03 AM EEST (5/26) 5:26 PM EEST (5/26)
Length of Visible Light 14h 38m
Length of Day
13h 46m
Waning Crescent, 6% of the Moon is Illuminated
May 26
Waning Crescent
May 28
New
Jun 5
First Quarter
Jun 13
Full
Jun 19
Last Quarter

Hourly Weather History & Observations

Time (EEST) Temp. Dew Point Humidity Pressure Visibility Wind Dir Wind Speed Gust Speed Precip Events Conditions
12:00 AM 64.4 °F 37.4 °F 37% 30.18 in - NW 4.6 mph - N/A   Clear
1:00 AM 66.2 °F 33.8 °F 30% 30.15 in - West 11.5 mph - N/A   Clear
2:00 AM 64.4 °F 35.6 °F 34% 30.15 in - NNW 9.2 mph - N/A   Clear
3:00 AM 62.6 °F 42.8 °F 48% 30.15 in - Calm Calm - N/A   Clear
4:00 AM 62.6 °F 41.0 °F 45% 30.18 in - NNW 9.2 mph - N/A   Clear
5:00 AM 60.8 °F 44.6 °F 55% 30.18 in - Calm Calm - N/A   Clear
6:00 AM 62.6 °F 41.0 °F 45% 30.18 in - Calm Calm - N/A   Clear
7:00 AM 66.2 °F 37.4 °F 35% 30.21 in - West 9.2 mph - N/A   Clear
8:00 AM 69.8 °F 28.4 °F 21% 30.21 in - NNE 4.6 mph - N/A   Clear
9:00 AM 71.6 °F 28.4 °F 20% 30.21 in - North 3.5 mph - N/A   Clear
10:00 AM 77.0 °F 23.0 °F 13% 30.21 in - North 10.4 mph - N/A   Clear
11:00 AM 77.0 °F 24.8 °F 14% 30.21 in - NNE 12.7 mph - N/A   Clear
12:00 PM 80.6 °F 24.8 °F 13% 30.21 in - NW 15.0 mph - N/A   Clear
1:00 PM 84.2 °F 24.8 °F 11% 30.18 in - NW 18.4 mph - N/A   Clear
2:00 PM 84.2 °F 30.2 °F 14% 30.18 in - NNW 17.3 mph - N/A   Clear
3:00 PM 80.6 °F 24.8 °F 13% 30.18 in - NW 15.0 mph - N/A   Clear
4:00 PM 80.6 °F 30.2 °F 16% 30.18 in - North 18.4 mph - N/A   Clear
5:00 PM 80.6 °F 32.0 °F 17% 30.18 in - North 18.4 mph - N/A   Clear
6:00 PM 78.8 °F 32.0 °F 18% 30.18 in - North 19.6 mph - N/A   Clear
7:00 PM 75.2 °F 32.0 °F 21% 30.18 in - North 17.3 mph - N/A   Clear
8:00 PM 73.4 °F 35.6 °F 25% 30.18 in - NNW 17.3 mph - N/A   Clear
9:00 PM 71.6 °F 37.4 °F 29% 30.18 in - NNW 13.8 mph - N/A   Clear
10:00 PM 69.8 °F 39.2 °F 33% 30.18 in - NNW 15.0 mph - N/A   Clear
11:00 PM 69.8 °F 41.0 °F 35% 30.18 in - NNW 13.8 mph - N/A   Clear